Location: Unspecified
(0.0000°N, 0.0000°E)
Time: 13:22:09
(UTC+00:00)

deb S5M - Visible Passes

Search period start: 18 June 2024 00:00
Search period end: 28 June 2024 00:00
Orbit: 781 x 864 km, 82.5° (Epoch: 17 June)

Date Brightness Start Highest point End Pass type
(mag) Time Alt. Az. Time Alt. Az. Time Alt. Az.
18 Jun ? 04:41:47 12° S 04:46:41 72° W 04:52:08 10° N visible
19 Jun ? 04:22:34 20° S 04:26:23 80° E 04:31:52 10° N visible
20 Jun ? 04:03:18 27° SSE 04:06:05 55° E 04:11:26 10° NNE visible
21 Jun ? 03:43:58 30° SE 03:45:46 38° E 03:50:50 10° NNE visible
21 Jun ? 05:25:30 10° WSW 05:27:40 12° W 05:29:51 10° WNW visible
22 Jun ? 03:24:35 26° ESE 03:25:27 27° E 03:30:01 10° NE visible
22 Jun ? 05:06:04 17° WSW 05:07:19 18° W 05:11:00 10° NW visible
23 Jun ? 03:05:09 19° E 03:05:09 19° E 03:08:54 10° NE visible
23 Jun ? 04:46:36 26° W 04:46:58 26° W 04:51:30 10° NNW visible
24 Jun ? 02:45:39 12° E 02:45:39 12° E 02:47:11 10° ENE visible
24 Jun ? 04:27:07 36° WNW 04:27:07 36° WNW 04:31:41 10° NNW visible
25 Jun ? 04:07:34 43° NW 04:07:34 43° NW 04:11:39 10° N visible
26 Jun ? 03:47:58 39° N 03:47:58 39° N 03:51:26 10° N visible
27 Jun ? 03:28:19 30° NNE 03:28:19 30° NNE 03:31:03 10° N visible
